When you browse on this site, cookies collect data to enhance your experience and personalize the content and advertising you see.
Visit our Privacy Policy to learn more. By continuing to use the site, you agree to this use of cookies and data.

Meteo orario Maloe Kasimovo

Oggi, 9 Luglio, Giovedi

Tempo Temperatura Precipitazioni Vento Pressione Umidità
00:00 +13°C° 0.4 mm 5 m/s 741 mm Hg 94%
01:00 +13°C° 0.4 mm 4 m/s 741 mm Hg 95%
02:00 +12°C° 0.4 mm 4 m/s 741 mm Hg 95%
03:00 +12°C° 0.2 mm 4 m/s 742 mm Hg 94%
04:00 +12°C° 0.2 mm 4 m/s 742 mm Hg 94%
05:00 +12°C° 0.2 mm 4 m/s 742 mm Hg 94%
06:00 +13°C° 0 mm 4 m/s 743 mm Hg 89%
07:00 +15°C° 0 mm 4 m/s 743 mm Hg 84%
08:00 +17°C° 0 mm 4 m/s 743 mm Hg 80%
09:00 +18°C° 0 mm 4 m/s 744 mm Hg 75%
10:00 +19°C° 0 mm 4 m/s 744 mm Hg 71%
11:00 +20°C° 0 mm 4 m/s 744 mm Hg 66%
12:00 +21°C° 0.1 mm 4 m/s 745 mm Hg 65%
13:00 +21°C° 0.1 mm 3 m/s 745 mm Hg 63%
14:00 +21°C° 0.1 mm 3 m/s 745 mm Hg 62%
15:00 +21°C° 0.3 mm 3 m/s 745 mm Hg 66%
16:00 +20°C° 0.3 mm 3 m/s 745 mm Hg 70%
17:00 +19°C° 0.3 mm 4 m/s 745 mm Hg 75%
18:00 +18°C° 0 mm 3 m/s 745 mm Hg 79%
19:00 +16°C° 0 mm 3 m/s 745 mm Hg 83%
20:00 +15°C° 0 mm 2 m/s 746 mm Hg 88%
21:00 +14°C° 0 mm 2 m/s 746 mm Hg 90%
22:00 +12°C° 0 mm 3 m/s 747 mm Hg 92%
23:00 +12°C° 0 mm 3 m/s 747 mm Hg 94%

Domani, 10 Luglio, Venerdi

Tempo Temperatura Precipitazioni Vento Pressione Umidità
00:00 +11°C° 0 mm 3 m/s 747 mm Hg 94%
01:00 +11°C° 0 mm 3 m/s 747 mm Hg 94%
02:00 +10°C° 0 mm 2 m/s 748 mm Hg 93%
03:00 +10°C° 0 mm 2 m/s 748 mm Hg 92%
04:00 +10°C° 0 mm 2 m/s 748 mm Hg 90%
05:00 +12°C° 0 mm 2 m/s 749 mm Hg 89%
06:00 +13°C° 0 mm 2 m/s 749 mm Hg 83%
07:00 +15°C° 0 mm 2 m/s 749 mm Hg 77%
08:00 +17°C° 0 mm 2 m/s 750 mm Hg 70%
09:00 +18°C° 0 mm 2 m/s 750 mm Hg 66%
10:00 +19°C° 0 mm 2 m/s 750 mm Hg 62%
11:00 +20°C° 0 mm 2 m/s 750 mm Hg 57%
12:00 +21°C° 0 mm 2 m/s 750 mm Hg 56%
13:00 +23°C° 0 mm 2 m/s 750 mm Hg 56%
14:00 +23°C° 0 mm 2 m/s 749 mm Hg 55%
15:00 +23°C° 0 mm 2 m/s 749 mm Hg 60%
16:00 +22°C° 0 mm 3 m/s 749 mm Hg 64%
17:00 +22°C° 0 mm 3 m/s 749 mm Hg 69%
18:00 +20°C° 0 mm 3 m/s 749 mm Hg 74%
19:00 +18°C° 0 mm 3 m/s 749 mm Hg 79%
20:00 +17°C° 0 mm 3 m/s 750 mm Hg 85%
21:00 +16°C° 0 mm 3 m/s 750 mm Hg 86%
22:00 +16°C° 0 mm 3 m/s 750 mm Hg 87%
23:00 +14°C° 0 mm 3 m/s 750 mm Hg 88%

Dopodomani, 11 Luglio, Sabato

Tempo Temperatura Precipitazioni Vento Pressione Umidità
00:00 +14°C° 0 mm 3 m/s 750 mm Hg 89%
01:00 +13°C° 0 mm 3 m/s 750 mm Hg 90%
02:00 +13°C° 0 mm 3 m/s 750 mm Hg 91%
03:00 +13°C° 0 mm 3 m/s 750 mm Hg 89%
04:00 +14°C° 0 mm 3 m/s 750 mm Hg 87%
05:00 +14°C° 0 mm 3 m/s 750 mm Hg 85%
06:00 +17°C° 0 mm 3 m/s 750 mm Hg 82%
07:00 +18°C° 0 mm 4 m/s 750 mm Hg 78%
08:00 +20°C° 0 mm 4 m/s 750 mm Hg 74%
09:00 +21°C° 0 mm 4 m/s 750 mm Hg 72%
10:00 +23°C° 0 mm 4 m/s 750 mm Hg 69%
11:00 +25°C° 0 mm 4 m/s 750 mm Hg 67%
12:00 +25°C° 0 mm 4 m/s 750 mm Hg 67%
13:00 +26°C° 0 mm 4 m/s 750 mm Hg 66%
14:00 +26°C° 0 mm 4 m/s 750 mm Hg 66%
15:00 +26°C° 0 mm 4 m/s 749 mm Hg 69%
16:00 +26°C° 0 mm 4 m/s 749 mm Hg 71%
17:00 +25°C° 0 mm 3 m/s 749 mm Hg 74%
18:00 +24°C° 0 mm 3 m/s 749 mm Hg 78%
19:00 +21°C° 0 mm 3 m/s 749 mm Hg 82%
20:00 +20°C° 0 mm 2 m/s 749 mm Hg 87%
21:00 +19°C° 0 mm 2 m/s 749 mm Hg 87%
22:00 +18°C° 0 mm 2 m/s 749 mm Hg 88%
23:00 +17°C° 0 mm 2 m/s 749 mm Hg 88%

12 Luglio, Domenica

Tempo Temperatura Precipitazioni Vento Pressione Umidità
00:00 +17°C° 0 mm 2 m/s 749 mm Hg 89%
01:00 +17°C° 0 mm 2 m/s 749 mm Hg 89%
02:00 +16°C° 0 mm 2 m/s 749 mm Hg 90%
03:00 +16°C° 0 mm 2 m/s 748 mm Hg 89%
04:00 +17°C° 0 mm 2 m/s 748 mm Hg 88%
05:00 +18°C° 0 mm 1 m/s 748 mm Hg 87%
06:00 +19°C° 0 mm 2 m/s 748 mm Hg 82%
07:00 +20°C° 0 mm 2 m/s 748 mm Hg 77%
08:00 +23°C° 0 mm 2 m/s 748 mm Hg 72%
09:00 +24°C° 0 mm 2 m/s 748 mm Hg 68%
10:00 +25°C° 0 mm 2 m/s 747 mm Hg 65%
11:00 +26°C° 0 mm 2 m/s 747 mm Hg 61%
12:00 +27°C° 0 mm 2 m/s 747 mm Hg 60%
13:00 +27°C° 0 mm 2 m/s 746 mm Hg 58%
14:00 +27°C° 0 mm 2 m/s 746 mm Hg 57%
15:00 +27°C° 0 mm 2 m/s 746 mm Hg 60%
16:00 +27°C° 0 mm 2 m/s 745 mm Hg 64%
17:00 +27°C° 0 mm 2 m/s 745 mm Hg 67%
18:00 +25°C° 0 mm 1 m/s 744 mm Hg 70%
19:00 +23°C° 0 mm 1 m/s 744 mm Hg 74%
20:00 +22°C° 0 mm 1 m/s 744 mm Hg 78%
21:00 +21°C° 0.1 mm 1 m/s 744 mm Hg 81%
22:00 +20°C° 0.1 mm 1 m/s 743 mm Hg 83%
23:00 +19°C° 0.1 mm 2 m/s 743 mm Hg 85%

13 Luglio, Lunedi

Tempo Temperatura Precipitazioni Vento Pressione Umidità
00:00 +19°C° 0.5 mm 2 m/s 742 mm Hg 88%
01:00 +18°C° 0.5 mm 2 m/s 742 mm Hg 90%
02:00 +18°C° 0.5 mm 2 m/s 742 mm Hg 92%
03:00 +18°C° 0.9 mm 2 m/s 741 mm Hg 94%
04:00 +19°C° 0.9 mm 2 m/s 741 mm Hg 95%
05:00 +19°C° 0.9 mm 2 m/s 740 mm Hg 96%
06:00 +20°C° 0.6 mm 2 m/s 740 mm Hg 95%
07:00 +21°C° 0.6 mm 2 m/s 740 mm Hg 93%
08:00 +22°C° 0.6 mm 3 m/s 739 mm Hg 92%
09:00 +24°C° 1.8 mm 2 m/s 739 mm Hg 89%
10:00 +25°C° 1.8 mm 2 m/s 739 mm Hg 86%
11:00 +26°C° 1.8 mm 2 m/s 738 mm Hg 83%
12:00 +25°C° 1.4 mm 2 m/s 738 mm Hg 83%
13:00 +25°C° 1.4 mm 2 m/s 737 mm Hg 84%
14:00 +25°C° 1.4 mm 2 m/s 737 mm Hg 85%
15:00 +25°C° 0.3 mm 2 m/s 737 mm Hg 85%
16:00 +25°C° 0.3 mm 2 m/s 736 mm Hg 85%
17:00 +24°C° 0.3 mm 3 m/s 736 mm Hg 85%
18:00 +22°C° 0.5 mm 3 m/s 736 mm Hg 88%
19:00 +21°C° 0.5 mm 3 m/s 736 mm Hg 91%
20:00 +20°C° 0.5 mm 2 m/s 736 mm Hg 94%
21:00 +20°C° 0.3 mm 3 m/s 736 mm Hg 95%
22:00 +19°C° 0.3 mm 3 m/s 736 mm Hg 96%
23:00 +18°C° 0.3 mm 3 m/s 736 mm Hg 98%

14 Luglio, Martedi

Tempo Temperatura Precipitazioni Vento Pressione Umidità
00:00 +18°C° 0 mm 4 m/s 736 mm Hg 97%
01:00 +18°C° 0 mm 4 m/s 736 mm Hg 96%
02:00 +17°C° 0 mm 5 m/s 736 mm Hg 96%
03:00 +16°C° 0 mm 5 m/s 736 mm Hg 96%
04:00 +16°C° 0 mm 5 m/s 736 mm Hg 95%
05:00 +15°C° 0 mm 5 m/s 736 mm Hg 95%
06:00 +15°C° 0 mm 5 m/s 736 mm Hg 94%
07:00 +15°C° 0 mm 5 m/s 737 mm Hg 94%
08:00 +15°C° 0 mm 5 m/s 737 mm Hg 93%
09:00 +15°C° 0 mm 6 m/s 737 mm Hg 90%
10:00 +16°C° 0 mm 6 m/s 737 mm Hg 86%
11:00 +16°C° 0 mm 6 m/s 738 mm Hg 83%
12:00 +16°C° 0.1 mm 6 m/s 738 mm Hg 82%
13:00 +16°C° 0.1 mm 6 m/s 738 mm Hg 81%
14:00 +16°C° 0.1 mm 6 m/s 738 mm Hg 81%
15:00 +16°C° 0.1 mm 7 m/s 738 mm Hg 82%
16:00 +15°C° 0.1 mm 7 m/s 738 mm Hg 84%
17:00 +15°C° 0.1 mm 7 m/s 738 mm Hg 86%
18:00 +14°C° 0 mm 6 m/s 739 mm Hg 86%
19:00 +14°C° 0 mm 6 m/s 739 mm Hg 86%
20:00 +14°C° 0 mm 6 m/s 739 mm Hg 86%
21:00 +14°C° 0 mm 6 m/s 739 mm Hg 86%
22:00 +14°C° 0 mm 6 m/s 739 mm Hg 85%
23:00 +14°C° 0 mm 6 m/s 739 mm Hg 85%
Mostrare altro